Mount Holly, NJ

3:06 AM EDT on September 22, 2017 (GMT -0400)
South Jersey Regional

Weather History for KVAY - January, 2013

Change the Weather History Date:

Thursday, January 31, 2013

  Actual Average (KPNE) Record (KPNE)
Temperature  
Mean Temperature 54 °F -  
Max Temperature 63 °F 38 °F 62 °F (2013)
Min Temperature 44 °F 24 °F 12 °F (2004)
Degree Days  
Heating Degree Days 11    
Growing Degree Days 4 (Base 50)    
Moisture  
Dew Point 37 °F    
Average Humidity 59    
Maximum Humidity 90    
Minimum Humidity 24    
Precipitation  
Precipitation 0.52 in - - ()
Sea Level Pressure  
Sea Level Pressure 29.43 in    
Wind  
Wind Speed 18 mph (WSW)    
Max Wind Speed 28 mph    
Max Gust Speed 48 mph    
Visibility 8 miles    
Events Rain    
Averages and records for this station are not official NWS values.
T = Trace of Precipitation, MM = Missing Value Source: NWS Daily Summary

Daily Weather History Graph

Daily Weather History Graph

Search for Another Location

Airport or City:

Trip Planner

Search our weather history database for the weather conditions in past years. The results will help you decide how hot, cold, wet, or windy it might be!

Date:

Astronomy

Jan. 31, 2013 Rise Set
Actual Time 7:08 AM EST 5:17 PM EST
Civil Twilight 6:39 AM EST 5:46 PM EST
Nautical Twilight 6:07 AM EST 6:18 PM EST
Astronomical Twilight 5:35 AM EST 6:50 PM EST
Moon 10:17 PM EST (1/31) 9:06 AM EST (1/31)
Length of Visible Light 11h 06m
Length of Day
10h 09m
Waning Gibbous, 80% of the Moon is Illuminated
Jan 31
Waning Gibbous
Feb 3
Last Quarter
Feb 10
New
Feb 17
First Quarter
Feb 25
Full

Hourly Weather History & Observations

Time (EST) Temp. Windchill Dew Point Humidity Pressure Visibility Wind Dir Wind Speed Gust Speed Precip Events Conditions
12:54 AM 63.0 °F - 57.0 °F 81% 29.29 in 10.0 mi South 17.3 mph 36.8 mph 0.03 in Rain Light Rain
1:54 AM 62.1 °F - 59.0 °F 90% 29.19 in 7.0 mi South 15.0 mph 35.7 mph 0.05 in Rain Light Rain
2:54 AM 63.0 °F - 57.9 °F 84% 29.12 in 10.0 mi South 18.4 mph 44.9 mph 0.01 in   Overcast
3:14 AM 62.6 °F - 59.0 °F 88% 29.10 in 1.8 mi South 18.4 mph 48.3 mph 0.06 in Rain Heavy Rain
3:24 AM 62.6 °F - 59.0 °F 88% 29.11 in 2.0 mi South 16.1 mph 41.4 mph 0.11 in Rain Heavy Rain
3:32 AM 62.6 °F - 59.0 °F 88% 29.17 in 1.8 mi SSW 16.1 mph 39.1 mph 0.16 in Rain Heavy Rain
3:40 AM 60.8 °F - 57.2 °F 88% 29.17 in 2.0 mi SW 17.3 mph 39.1 mph 0.20 in Rain Heavy Rain
3:45 AM 60.8 °F - 57.2 °F 88% 29.18 in 3.0 mi SW 18.4 mph 33.4 mph 0.22 in Rain Rain
3:54 AM 61.0 °F - 57.9 °F 90% 29.18 in 6.0 mi SW 13.8 mph 26.5 mph 0.23 in Rain Light Rain
4:08 AM 60.8 °F - 57.2 °F 88% 29.18 in 4.0 mi WSW 13.8 mph 23.0 mph 0.03 in Rain Rain
4:54 AM 57.9 °F - 55.0 °F 90% 29.15 in 6.0 mi SSW 8.1 mph - 0.17 in Rain Light Rain
5:54 AM 57.9 °F - 51.1 °F 78% 29.16 in 10.0 mi SW 17.3 mph 31.1 mph 0.00 in   Scattered Clouds
6:21 AM 53.6 °F - 44.6 °F 72% 29.22 in 10.0 mi West 25.3 mph 41.4 mph 0.01 in   Overcast
6:54 AM 51.1 °F - 36.0 °F 56% 29.28 in 10.0 mi West 18.4 mph 32.2 mph 0.03 in   Overcast
7:54 AM 48.0 °F - 30.0 °F 50% 29.34 in 10.0 mi West 21.9 mph 33.4 mph N/A   Overcast
8:54 AM 45.0 °F 36.4 °F 26.1 °F 48% 29.43 in 10.0 mi West 23.0 mph 38.0 mph N/A   Mostly Cloudy
9:54 AM 45.0 °F 37.1 °F 23.0 °F 42% 29.47 in 10.0 mi West 19.6 mph 36.8 mph N/A   Partly Cloudy
10:54 AM 46.9 °F - 23.0 °F 39% 29.50 in 10.0 mi West 20.7 mph 32.2 mph N/A   Overcast
11:54 AM 55.0 °F - 23.0 °F 29% 29.52 in 10.0 mi West 16.1 mph 27.6 mph N/A   Mostly Cloudy
12:54 PM 45.0 °F 35.6 °F 19.0 °F 36% 29.52 in 10.0 mi West 27.6 mph 39.1 mph N/A   Mostly Cloudy
1:54 PM 45.0 °F 37.4 °F 18.0 °F 34% 29.55 in 10.0 mi West 18.4 mph 27.6 mph N/A   Scattered Clouds
2:54 PM 50.0 °F - 18.0 °F 28% 29.59 in 10.0 mi West 24.2 mph 39.1 mph N/A   Partly Cloudy
3:54 PM 48.9 °F - 14.0 °F 25% 29.64 in 10.0 mi West 21.9 mph 39.1 mph N/A   Partly Cloudy
4:54 PM 48.0 °F - 12.0 °F 24% 29.68 in 10.0 mi West 20.7 mph 34.5 mph N/A   Clear
5:54 PM 46.9 °F - 12.9 °F 25% 29.74 in 10.0 mi West 15.0 mph 25.3 mph N/A   Mostly Cloudy
6:54 PM 46.0 °F 39.0 °F 15.1 °F 29% 29.77 in 10.0 mi West 17.3 mph 29.9 mph N/A   Clear
7:54 PM 46.0 °F 39.9 °F 16.0 °F 30% 29.79 in 10.0 mi West 13.8 mph 23.0 mph N/A   Mostly Cloudy
8:54 PM 44.1 °F 36.5 °F 16.0 °F 32% 29.82 in 10.0 mi WSW 17.3 mph 27.6 mph N/A   Overcast
9:54 PM - - - N/A% 29.85 in 10.0 mi West 20.7 mph 35.7 mph N/A   Overcast
10:54 PM - - - N/A% 29.86 in 10.0 mi West 11.5 mph 25.3 mph N/A   Clear
11:54 PM - - - N/A% 29.87 in 10.0 mi WSW 9.2 mph 17.3 mph N/A   Clear